sat.trackr.live / text

‹ back to catalog

STARLINK-30707

NORAD 57949 · 2023-148Q

PAYLOAD ACTIVE UNKNOWN

§ Identity

Operator
Country
US
Launch date
2023-09-25
Launch site
AFWTR
Launch vehicle
Mass (kg)
RCS (m²)

Purposes: comms

External: N2YO · Heavens-Above · Gunter

§ Orbital elements

Epoch: 2026-05-24T23:03:11.462112Z

Period
93.85 min
Inclination
53.1615°
Eccentricity
0.0001630
Mean motion
15.34323932 rev/d
Perigee alt
461.8 km
Apogee alt
464.0 km
Semi-major
6,841.1 km
B*
4.8798e-4
RAAN
29.7350°
Arg perigee
83.5672°
Mean anomaly
276.5516°
Rev number
15,010

§ Raw data

STARLINK-307071 57949U 23148Q   26144.96054933  .00016107  00000+0  48798-3 0  99912 57949  53.1615  29.7350 0001630  83.5672 276.5516 15.34323932150108

JSON: /api/v1/satellites/57949 · /tle

For live sub-satellite position, see the globe view (requires WebGL).

§ Visibility from observer

Set your observer location to see the next 7 days of passes ≥ 10°. The values pass through the URL so the page stays shareable.

No JS? Fill the form by hand. The geolocation button needs JavaScript.